Provo, UT

2:43 AM MDT on April 26, 2018 (GMT -0600)
Provo Municipal

Weather History for KPVU - September, 2014

Change the Weather History Date:

Sunday, September 28, 2014

  Actual Average Record
Temperature  
Mean Temperature 60 °F -  
Max Temperature 68 °F 70 °F 87 °F (1989)
Min Temperature 51 °F 43 °F 32 °F (1999)
Degree Days  
Heating Degree Days 6    
Growing Degree Days 10 (Base 50)    
Moisture  
Dew Point 44 °F    
Average Humidity 63    
Maximum Humidity 82    
Minimum Humidity 35    
Precipitation  
Precipitation 0.09 in - - ()
Sea Level Pressure  
Sea Level Pressure 29.94 in    
Wind  
Wind Speed 6 mph (South)    
Max Wind Speed 22 mph    
Max Gust Speed 30 mph    
Visibility 12 miles    
Events Rain , Thunderstorm    
Averages and records for this station are not official NWS values.
T = Trace of Precipitation, MM = Missing Value Source: NWS Daily Summary

Daily Weather History Graph

Daily Weather History Graph

Search for Another Location

Airport or City:

Astronomy

Sep. 28, 2014 Rise Set
Actual Time 7:20 AM MDT 7:13 PM MDT
Civil Twilight 6:53 AM MDT 7:40 PM MDT
Nautical Twilight 6:21 AM MDT 8:12 PM MDT
Astronomical Twilight 5:49 AM MDT 8:44 PM MDT
Moon 11:38 AM MDT (9/28) 10:00 PM MDT (9/28)
Length of Visible Light 12h 47m
Length of Day
11h 53m
Waxing Crescent, 19% of the Moon is Illuminated
Sep 28
Waxing Crescent
Oct 1
First Quarter
Oct 8
Full
Oct 15
Last Quarter
Oct 23
New

Hourly Weather History & Observations

Time (MDT) Temp. Dew Point Humidity Pressure Visibility Wind Dir Wind Speed Gust Speed Precip Events Conditions
12:15 AM 53.6 °F 46.4 °F 77% 29.90 in 10.0 mi NNE 9.2 mph - N/A   Mostly Cloudy
12:35 AM 53.6 °F 46.4 °F 77% 29.89 in 10.0 mi NNW 4.6 mph - N/A   Mostly Cloudy
12:55 AM 57.2 °F 44.6 °F 63% 29.89 in 10.0 mi South 11.5 mph - N/A   Scattered Clouds
1:15 AM 57.2 °F 46.4 °F 67% 29.89 in 10.0 mi SSE 15.0 mph - N/A   Clear
1:35 AM 57.2 °F 46.4 °F 67% 29.88 in 10.0 mi SSE 12.7 mph - N/A   Clear
1:55 AM 55.4 °F 46.4 °F 72% 29.88 in 10.0 mi SSE 9.2 mph - N/A   Clear
2:15 AM 57.2 °F 44.6 °F 63% 29.91 in 10.0 mi Calm Calm - N/A   Clear
2:35 AM 57.2 °F 42.8 °F 59% 29.90 in 10.0 mi East 3.5 mph - N/A   Clear
2:55 AM 57.2 °F 44.6 °F 63% 29.91 in 10.0 mi ENE 3.5 mph - N/A   Scattered Clouds
3:15 AM 57.2 °F 44.6 °F 63% 29.91 in 10.0 mi Calm Calm - N/A   Mostly Cloudy
3:35 AM 57.2 °F 44.6 °F 63% 29.90 in 10.0 mi Calm Calm - N/A   Overcast
3:55 AM 57.2 °F 44.6 °F 63% 29.91 in 10.0 mi Calm Calm - N/A   Overcast
4:15 AM 55.4 °F 44.6 °F 67% 29.91 in 10.0 mi North 4.6 mph - N/A   Overcast
4:35 AM 57.2 °F 44.6 °F 63% 29.91 in 10.0 mi SW 4.6 mph - N/A   Mostly Cloudy
4:55 AM 57.2 °F 44.6 °F 63% 29.91 in 10.0 mi SW 6.9 mph - N/A   Mostly Cloudy
5:15 AM 55.4 °F 44.6 °F 67% 29.91 in 10.0 mi Calm Calm - N/A   Mostly Cloudy
5:35 AM 55.4 °F 46.4 °F 72% 29.92 in 10.0 mi SSE 4.6 mph - N/A   Partly Cloudy
5:55 AM 53.6 °F 46.4 °F 77% 29.92 in 10.0 mi South 4.6 mph - N/A   Scattered Clouds
6:15 AM 53.6 °F 46.4 °F 77% 29.92 in 10.0 mi Calm Calm - N/A   Partly Cloudy
6:35 AM 53.6 °F 46.4 °F 77% 29.92 in 10.0 mi Calm Calm - N/A   Clear
6:52 AM 51.8 °F 46.4 °F 82% 29.93 in 15.0 mi Calm Calm - N/A   Mostly Cloudy
7:55 AM 51.8 °F 46.4 °F 82% 29.95 in 15.0 mi Calm Calm - N/A   Mostly Cloudy
8:52 AM 53.6 °F 48.2 °F 82% 29.94 in 15.0 mi Calm Calm - N/A   Mostly Cloudy
9:53 AM 55.4 °F 48.2 °F 77% 29.97 in 15.0 mi Calm Calm - N/A   Mostly Cloudy
10:47 AM 59.0 °F 46.4 °F 63% 29.98 in 15.0 mi Calm Calm - N/A   Scattered Clouds
11:58 AM 62.6 °F 48.2 °F 59% 29.97 in 15.0 mi WSW 5.8 mph - N/A   Scattered Clouds
12:49 PM 62.6 °F 46.4 °F 55% 29.96 in 15.0 mi Calm Calm - N/A   Scattered Clouds
1:52 PM 64.4 °F 41.0 °F 42% 29.98 in 15.0 mi Variable 4.6 mph - N/A   Scattered Clouds
2:48 PM 66.2 °F 42.8 °F 43% 29.93 in 15.0 mi Variable 4.6 mph - N/A   Scattered Clouds
3:58 PM 66.2 °F 42.8 °F 43% 29.93 in 15.0 mi Calm Calm - N/A   Scattered Clouds
4:52 PM 68.0 °F 39.2 °F 35% 29.91 in 15.0 mi Calm Calm - N/A   Scattered Clouds
5:48 PM 66.2 °F 39.2 °F 37% 29.92 in 15.0 mi South 18.4 mph 26.5 mph N/A Rain , Thunderstorm Thunderstorms and Rain
6:54 PM 57.2 °F 39.2 °F 51% 29.98 in 15.0 mi NE 11.5 mph 17.3 mph N/A   Mostly Cloudy
7:48 PM 53.6 °F 41.0 °F 62% 29.95 in 15.0 mi SE 9.2 mph - N/A   Mostly Cloudy
8:47 PM 57.2 °F 39.2 °F 51% 29.98 in 15.0 mi SE 11.5 mph 17.3 mph N/A   Mostly Cloudy
9:15 PM 57.2 °F 44.6 °F 63% 30.00 in 10.0 mi SW 21.9 mph 29.9 mph N/A   Overcast
9:35 PM 57.2 °F 41.0 °F 55% 30.01 in 10.0 mi WSW 18.4 mph 26.5 mph N/A   Mostly Cloudy
9:55 PM 57.2 °F 42.8 °F 59% 30.01 in 10.0 mi WSW 12.7 mph - N/A   Mostly Cloudy
10:15 PM 57.2 °F 39.2 °F 51% 30.02 in 10.0 mi SW 10.4 mph - N/A   Overcast
10:35 PM 55.4 °F 42.8 °F 63% 30.03 in 10.0 mi Calm Calm - N/A   Mostly Cloudy
10:55 PM 55.4 °F 42.8 °F 63% 30.03 in 10.0 mi ESE 5.8 mph - N/A   Mostly Cloudy
11:15 PM 55.4 °F 42.8 °F 63% 30.03 in 10.0 mi East 4.6 mph - N/A   Overcast
11:35 PM 53.6 °F 44.6 °F 72% 30.03 in 10.0 mi Calm Calm - N/A   Mostly Cloudy
11:55 PM 53.6 °F 46.4 °F 77% 30.04 in 10.0 mi West 3.5 mph - N/A   Scattered Clouds